Presure
121 107 105 139 134 115 116 120 122 108 105 112 91 96 104 105 98 107 110 100 109 119 117 122 120 112 114 91 100 106 115 119
112 109 122 110 112 118 119 119 132 121 111 103 114 114 105 94 108 102 103 106 105 104 110 115 117 123 113 120 111 102 110 111
115 114 104 112 117 113 118 118 116 122 118 117 86 128 129 94 122 111 101 109 108 113 105 121 118 118 131 128 115 131 89 110
99 117 127 109 110 104 120 114 115 129 118 104 96 111 103 95 97 97 106 103 103 110 111 121 119 113 124 119 117 125 101 107
112 109 115 121 114 118 109 120 116 92 116 115 101 118 109 100 110 107 114 98 105 92 124 112 120 120 130 122 113 121 87 98
118 112 84 80 106 129 129 120 116 110 111 120 84 119 116 124 112 92 106 99 108 111 96 117 117 120 117 125 111 96 105 84
134 130 93 106 110 111 122 109 121 127 109 113 115 114 110 110 105 108 107 114 110 107 116 110 117 115 128 131 111 99 109 109
102 114 131 132 109 107 119 111 134 90 132 121 98 117 118 91 119 114 117 107 104 81 117 117 124 113 134 114 117 122 117 109
123 124 122 107 131 118 125 123 94 94 108 127 116 114 128 124 101 125 105 103 125 116 119 122 122 115 128 117 125 117 126 106
97 127 132 129 101 123 131 113 112 115 123 95 119 126 124 112 124 101 126 100 118 127 121 125 119 109 120 117 117 114 128 114
135 140 145 125 112 139 132 122 98 102 128 113 126 139 137 129 104 131 129 121 107 121 123 115 115 128 125 120 114 111 110 106
180 146 142 115 136 134 108 121 95 130 144 119 121 114 111 136 135 93 120 126 126 111 118 123 127 129 127 117 122 101 116 104
176 152 143 141 128 141 134 138 136 100 130 105 116 91 125 90 103 125 129 105 128 133 127 129 130 138 136 135 96 101 114 107
97 106 180 115 113 157 135 105 136 115 137 128 91 142 123 98 126 98 123 123 119 116 128 130 123 125 134 114 98 99 101 109
150 213 87 159 140 153 146 140 174 148 129 115 126 122 142 148 131 139 134 133 108 140 118 134 130 128 132 124 79 117 127 88
217 217 213 184 141 122 100 109 151 155 143 168 139 154 97 125 144 136 135 123 139 126 141 141 120 140 141 95 75 141 121 91
244 228 209 111 214 214 155 119 91 155 136 141 157 167 171 153 142 160 159 131 148 125 120 140 142 107 136 137 108 125 144 111
244 244 124 241 216 122 211 88 152 134 103 138 133 190 179 170 138 112 166 166 106 163 147 97 151 99 124 146 136 155 147 146
264 253 153 235 88 94 220 213 211 210 166 176 162 129 147 117 178 145 148 165 151 133 108 150 116 99 103 150 98 147 196 168
Wind_Speed
41 37 40 43 42 35 37 33 33 29 24 26 21 20 20 20 19 21 20 19 23 26 27 28 28 25 26 7 17 28 34 37
46 43 43 46 45 41 40 36 37 35 30 29 30 29 23 24 24 23 23 23 23 24 26 28 28 32 28 31 28 20 32 33
56 47 46 45 50 45 40 40 35 35 34 33 29 36 34 27 27 28 25 26 27 29 24 33 29 32 36 35 31 33 12 34
50 57 54 48 50 42 47 39 41 42 37 39 35 35 31 30 33 31 28 28 27 31 30 34 33 31 36 36 36 36 21 27
63 57 56 57 53 53 44 47 45 30 40 44 40 40 37 32 34 36 35 30 32 20 35 32 35 37 38 38 35 39 11 25
67 63 34 33 52 66 57 55 47 44 45 46 33 45 40 40 37 33 38 34 36 37 24 38 38 39 37 41 37 21 29 14
74 74 38 54 52 54 64 54 53 50 50 48 48 47 40 41 38 42 40 43 40 41 42 42 42 40 47 48 39 26 37 38
51 65 75 75 59 56 62 48 69 43 55 52 44 51 50 40 49 46 48 43 43 20 45 45 49 42 52 43 47 49 46 40
87 83 74 44 71 65 74 70 35 37 39 50 54 53 56 54 45 54 46 46 55 48 47 50 51 46 52 47 54 49 55 39
49 89 89 80 47 70 79 50 48 53 61 34 53 58 59 54 62 45 58 40 57 59 54 56 51 44 54 48 51 48 59 51
101 97 104 71 41 81 76 69 45 52 69 61 72 80 70 64 51 63 64 59 49 59 59 52 55 63 60 53 47 39 43 41
115 103 99 52 91 92 58 69 42 75 79 69 71 66 57 75 67 40 58 64 66 55 56 61 65 66 64 48 58 32 51 40
118 111 103 100 87 98 90 93 85 53 77 57 67 29 77 40 49 67 58 47 64 71 68 71 71 78 75 75 24 31 56 42
44 51 110 50 61 108 89 68 94 64 89 84 43 89 72 49 77 42 76 61 50 55 67 71 66 68 72 46 30 31 38 49
80 133 9 87 90 107 104 100 106 103 88 70 77 74 88 88 78 86 86 81 52 87 57 75 72 73 79 70 20 55 70 31
138 142 139 107 70 63 43 46 109 110 97 110 95 105 53 73 91 85 83 72 90 79 88 87 58 84 87 33 24 85 65 40
141 143 138 47 138 137 112 60 37 116 88 103 113 119 116 103 92 101 99 78 94 74 64 88 88 50 87 90 63 75 91 67
137 140 60 146 141 53 139 36 88 91 53 95 86 118 120 117 88 61 115 113 48 106 94 38 95 43 69 95 85 98 91 91
136 137 77 131 30 39 144 140 139 139 103 124 118 86 107 63 114 98 87 94 90 79 54 98 60 49 55 94 54 88 95 95
Wind_Direction
248 248 256 255 256 251 258 257 259 257 256 270 261 268 281 286 292 304 303 309 314 313 315 319 322 327 330 335 335 336 340 342
251 244 243 251 255 252 254 256 257 254 257 253 268 272 270 275 284 290 295 298 303 304 313 314 318 316 321 322 321 326 330 333
253 247 245 244 250 253 247 254 251 256 256 256 270 271 270 268 276 278 283 288 293 297 302 306 309 311 310 313 312 316 324 324
251 254 246 252 246 249 253 248 254 257 256 251 262 257 263 262 267 273 279 281 283 290 296 300 302 302 305 305 306 311 314 318
251 255 255 252 250 248 252 250 248 261 254 255 255 261 258 261 266 267 270 284 278 278 289 292 297 297 302 300 299 305 307 314
243 254 249 255 255 255 250 253 249 252 256 257 270 263 262 267 264 273 269 275 280 283 288 291 291 293 294 299 293 276 304 315
239 237 265 272 260 259 256 261 251 246 254 257 257 262 259 260 264 269 271 277 282 288 288 288 287 291 295 296 288 289 298 305
247 243 241 231 263 255 254 256 259 260 248 253 262 262 262 257 264 266 269 271 279 257 280 283 288 285 289 289 291 294 296 300
252 254 255 248 231 256 248 252 250 256 261 248 257 261 260 264 253 266 265 267 274 276 277 279 282 285 286 286 288 293 294 297
253 253 255 252 246 243 242 274 278 279 267 253 258 254 253 259 261 261 265 260 273 272 278 277 281 287 284 284 287 291 292 297
247 246 247 248 243 242 241 256 249 258 252 269 264 263 262 256 263 259 261 268 271 274 274 279 283 278 281 281 284 287 292 299
242 249 252 248 253 262 255 254 249 251 243 265 256 273 260 263 262 263 264 262 268 280 277 274 274 276 279 279 282 286 289 300
244 248 250 253 260 258 264 258 251 243 251 264 266 263 261 256 269 268 268 269 263 265 270 273 275 274 275 277 285 288 289 299
237 244 245 240 251 247 258 228 259 248 252 249 263 254 264 268 261 265 271 274 265 275 271 268 274 277 272 277 283 296 289 294
246 241 251 245 249 248 252 258 250 257 246 251 252 261 251 253 259 253 255 261 271 265 264 270 271 272 274 278 273 281 284 289
238 240 241 243 249 249 249 250 256 256 253 243 251 253 261 253 252 256 256 259 259 267 265 266 261 271 273 272 271 280 284 294
238 238 238 234 244 245 250 248 259 255 260 261 255 251 250 259 260 256 257 259 258 262 259 266 266 275 272 273 279 282 278 286
239 240 236 240 239 225 243 252 248 254 250 258 257 245 248 252 260 249 255 257 261 259 263 268 265 274 272 272 276 279 282 284
241 242 245 242 257 250 242 243 244 246 250 253 257 255 259 237 246 263 250 249 260 261 260 268 265 271 273 274 275 283 276 282